SCP
1 1 2 2 2 1 1 1 1 0 0 0 1 1 0 0 0 0 0 0 0 0 1 1 1 1 1 1 1 1 0 0 0 0 0 0 0 0 0 0 0 0 0 0
1 1 1 1 1 1 1 1 1 1 0 0 1 1 0 1 1 0 0 0 0 0 1 1 1 1 1 1 1 1 0 0 1 0 0 0 0 0 0 0 0 0 0 0
1 1 1 1 1 1 1 1 1 1 0 0 0 0 0 1 1 0 0 0 0 0 1 1 1 1 1 1 1 1 1 1 1 1 0 0 0 0 0 0 0 0 0 0
1 1 1 1 1 1 1 1 1 1 0 0 0 0 0 0 0 0 0 0 0 0 1 1 2 1 1 1 1 1 1 1 1 1 0 0 0 0 0 0 0 0 0 0
1 1 1 1 1 1 1 1 1 1 0 0 0 0 0 0 0 0 0 0 0 0 1 1 2 1 1 1 1 1 1 1 1 1 1 1 0 0 0 0 0 0 0 0
0 1 1 1 1 1 1 1 1 1 1 0 0 0 0 0 0 0 0 0 0 0 0 1 1 1 1 1 1 1 1 1 1 1 1 0 0 0 0 0 0 0 0 0
0 1 1 1 1 1 1 1 1 1 1 0 0 0 0 0 0 0 0 0 0 0 0 0 1 1 2 2 2 1 1 1 1 1 1 0 0 0 0 0 0 1 0 0
0 0 1 1 0 0 1 1 1 1 1 0 0 0 0 0 0 0 0 0 0 0 0 0 1 1 2 2 2 1 2 2 1 1 0 0 0 0 0 1 1 1 1 1
0 0 0 0 1 1 1 0 0 0 0 0 0 0 0 0 0 0 0 0 0 0 0 0 1 1 1 2 1 1 1 1 1 1 0 0 0 0 0 1 1 1 1 1
0 0 0 0 0 1 0 0 0 0 0 0 0 0 0 0 0 0 0 0 0 0 0 0 1 1 1 2 2 1 1 1 1 0 0 0 0 0 0 1 1 1 1 1
0 0 0 0 0 0 0 0 0 0 0 0 0 0 0 0 0 0 0 0 0 0 0 0 1 1 2 2 2 1 1 1 0 0 0 0 0 0 0 0 1 1 1 1
0 0 0 0 0 0 0 0 0 0 0 0 0 0 0 0 0 0 0 0 0 0 0 0 1 1 2 2 2 1 1 1 0 0 0 0 0 0 0 0 0 0 1 1
0 0 0 0 0 0 0 0 0 0 0 0 0 0 0 0 0 0 0 0 0 0 0 0 1 1 2 2 2 1 1 0 0 0 0 0 0 0 0 0 0 0 0 0
0 0 0 0 0 0 0 0 0 0 0 0 0 0 0 0 0 0 0 0 0 0 0 1 1 1 2 2 2 1 1 0 0 0 0 0 0 0 0 0 0 0 0 0
0 0 0 0 0 0 0 0 0 0 0 0 0 0 0 0 0 0 0 0 0 0 0 1 1 1 1 2 2 1 1 0 0 0 0 0 0 0 0 0 0 0 0 0
0 0 0 0 0 0 0 0 0 0 0 0 0 0 0 0 0 0 0 0 0 0 0 0 1 1 1 1 1 1 0 0 0 0 0 0 0 0 0 0 0 0 0 0
0 0 0 0 0 0 0 0 0 0 0 0 0 0 0 0 0 0 0 0 0 0 0 0 0 1 1 1 1 1 0 0 0 0 0 0 0 0 0 0 0 0 0 0
0 0 0 0 0 0 0 0 0 0 0 0 0 0 0 0 0 0 0 0 0 0 0 0 0 0 1 1 1 0 0 0 0 0 0 0 0 0 0 0 0 0 0 0
0 0 0 0 0 0 0 0 0 0 0 0 0 0 0 0 0 0 0 0 0 0 0 0 0 0 0 1 1 0 0 0 0 0 0 0 0 0 0 0 0 0 0 0
0 0 0 0 0 0 0 0 0 0 0 0 0 0 0 0 0 0 0 0 0 0 0 0 0 0 0 0 0 0 0 0 0 0 0 0 0 0 0 0 0 0 1 1
0 0 0 0 0 0 0 0 0 0 0 0 0 0 0 0 0 0 0 0 0 0 0 0 0 0 0 0 0 0 0 0 0 0 0 0 0 0 0 0 0 0 1 1
0 0 0 0 0 0 0 0 0 0 0 0 0 0 0 0 0 0 0 0 0 0 0 0 0 0 0 0 0 0 0 0 0 0 0 0 0 0 0 0 0 0 0 1
0 0 0 0 0 0 0 0 0 0 0 0 0 0 0 0 0 0 0 0 0 0 0 0 0 0 0 0 0 0 0 0 0 0 0 0 0 0 0 0 0 0 0 0
0 0 0 0 0 0 0 0 0 0 0 0 0 0 0 0 0 0 0 0 0 0 0 0 0 0 0 0 0 0 0 0 0 0 0 0 0 0 0 0 0 0 0 0
0 0 0 0 0 0 0 0 0 0 0 0 0 0 0 0 0 0 0 0 0 0 0 0 0 0 0 0 0 0 0 0 0 0 0 0 0 0 0 0 0 0 0 0
0 0 0 0 0 0 0 0 0 0 0 0 0 0 0 0 0 0 0 0 0 0 0 0 0 0 0 0 0 0 0 0 0 0 0 0 0 0 0 0 0 0 0 0
Wind_Speed
8 7 6 7 7 6 4 5 7 7 6 5 7 7 4 5 4 4 3 4 5 6 8 7 5 4 4 3 4 5 5 4 3 2 1 1 1 1 1 1 2 1 2 3
6 5 5 4 4 4 3 4 6 7 7 6 7 8 7 6 5 4 5 5 5 6 8 7 5 4 3 3 3 4 4 4 4 2 1 1 0 1 0 0 0 1 2 2
5 5 6 7 7 5 4 5 6 7 6 6 8 7 7 8 7 6 7 6 6 5 7 7 5 5 4 3 3 2 3 4 4 3 1 1 0 1 1 1 0 1 1 1
3 4 6 6 5 5 4 4 5 7 6 5 7 5 4 6 7 6 6 6 5 5 6 5 5 4 4 3 2 2 3 3 4 3 2 0 1 1 1 1 0 1 2 1
5 6 5 5 4 2 3 3 3 6 5 4 6 6 4 4 5 5 5 6 5 5 6 6 5 4 4 4 3 2 3 3 3 2 2 1 2 2 1 1 1 2 1 2
6 5 3 2 3 2 3 5 5 5 3 3 5 6 3 4 5 6 6 7 6 6 7 6 6 4 4 4 3 2 2 2 2 1 1 2 2 2 3 3 2 2 2 2
7 6 3 2 4 5 6 4 3 3 3 2 4 6 5 6 7 7 7 7 7 7 6 6 6 4 4 3 2 2 2 1 1 1 3 3 2 3 3 3 2 2 2 1
6 7 6 3 2 3 5 2 2 2 3 4 5 6 7 9 8 8 8 7 7 7 6 6 5 4 4 3 2 1 1 1 1 2 3 2 2 2 2 2 2 3 2 1
3 6 6 4 3 4 3 4 6 3 3 3 6 9 9 8 8 7 8 7 7 7 6 6 5 4 4 3 2 2 2 1 1 2 3 2 3 2 2 3 3 2 2 2
3 5 7 5 4 4 4 4 3 2 1 2 8 10 8 9 7 7 7 7 6 6 6 6 5 4 3 3 2 2 2 2 2 2 3 3 2 2 3 3 4 4 4 3
2 3 7 7 4 3 4 3 2 3 3 1 3 4 7 10 8 7 7 7 6 5 5 5 4 4 4 3 3 3 3 3 3 3 4 3 2 2 3 3 3 4 4 5
2 3 6 7 5 2 3 3 2 3 3 1 1 5 7 9 8 8 8 7 6 5 5 5 5 4 4 4 4 3 3 3 3 3 4 4 3 3 3 3 4 4 5 5
5 3 4 6 6 7 5 3 4 4 3 3 1 7 8 9 8 7 7 6 5 5 5 5 4 4 4 4 4 4 3 3 3 3 4 4 4 4 4 4 4 4 5 5
4 6 4 2 1 2 5 4 4 5 4 2 3 10 10 9 8 7 6 6 5 4 4 4 3 3 3 3 3 4 4 3 3 3 3 4 5 5 5 5 4 4 5 5
5 7 5 2 0 1 3 3 4 5 5 2 3 9 11 10 8 7 6 5 5 4 4 4 3 3 3 3 3 4 4 4 4 3 3 4 5 5 5 5 5 5 4 6
6 7 6 5 4 4 5 5 5 5 3 2 3 4 8 10 9 7 6 5 4 3 3 3 3 3 3 3 3 3 3 3 3 3 4 4 5 5 5 5 6 6 6 5
5 7 7 6 5 6 7 7 8 6 5 5 4 5 11 10 9 7 6 5 4 3 3 3 3 3 3 3 3 3 4 4 4 4 4 4 5 5 5 6 6 6 6 5
7 8 5 6 6 8 2 3 2 3 3 3 4 7 10 8 7 5 6 5 4 3 2 2 3 3 3 4 4 3 4 4 4 4 5 5 5 5 5 5 6 6 6 6
7 6 6 6 7 4 5 5 4 4 3 4 6 8 9 8 6 5 6 5 4 3 2 2 3 3 4 4 4 4 4 4 4 4 5 5 5 6 5 6 6 5 5 6
6 7 6 6 7 5 5 8 5 3 4 5 6 8 9 8 5 4 6 5 4 4 2 2 2 3 4 4 4 4 4 4 4 4 5 6 6 6 6 6 6 5 5 6
7 7 8 8 8 1 8 7 5 4 2 7 6 7 8 6 2 5 7 5 4 3 2 1 2 2 3 4 4 4 4 5 5 4 5 6 6 6 6 5 5 6 6 6
6 6 7 7 8 3 8 6 3 3 7 6 5 5 6 6 6 6 5 4 3 2 1 1 1 2 2 3 3 4 4 4 5 5 5 6 6 6 7 5 5 5 6 6
3 2 2 1 3 6 5 3 4 5 4 4 4 5 6 6 5 4 3 3 2 1 0 1 1 2 2 2 3 4 4 4 5 5 5 6 6 5 5 5 5 5 5 5
2 2 1 1 3 5 4 4 3 3 3 3 4 3 4 4 4 3 2 2 1 1 0 1 2 2 3 3 3 3 4 4 6 6 5 5 5 5 5 4 4 4 4 4
2 1 3 4 2 3 3 3 3 3 3 3 3 2 2 2 3 2 2 1 1 1 1 1 2 2 3 4 4 3 4 5 5 6 6 5 5 5 5 5 5 5 5 5
4 5 6 4 1 2 2 2 4 3 2 2 2 2 1 1 2 2 1 1 1 1 1 2 2 3 4 5 5 4 4 4 5 6 6 4 4 4 4 5 6 8 9 11
Wind_Direction
192 201 201 196 204 230 201 164 148 140 157 146 124 117 117 95 84 84 102 116 124 135 123 113 118 121 130 128 124 130 137 137 118 87 45 33 37 333 7 35 72 5 340 354
185 200 194 177 203 224 183 155 150 145 155 137 125 113 106 93 90 71 75 84 98 112 121 118 122 119 128 120 112 129 131 121 116 124 163 185 143 283 251 344 89 16 353 347
178 169 178 175 189 178 182 173 170 154 145 142 123 107 110 103 91 78 72 69 73 77 104 119 119 118 106 96 109 110 113 131 135 146 134 1 350 294 307 258 173 228 246 271
154 180 188 185 180 179 173 169 179 163 169 170 156 124 119 114 98 86 77 74 73 70 75 87 93 101 114 112 100 104 114 113 122 135 137 298 286 286 284 302 215 262 236 213
163 169 184 182 167 224 145 158 191 205 196 189 166 130 115 109 102 92 88 81 76 78 77 78 78 74 74 76 69 48 81 84 91 95 126 226 284 300 315 319 293 275 259 228
147 165 188 153 154 206 179 199 206 225 230 210 178 132 114 117 113 102 91 84 77 69 71 72 74 72 67 63 55 34 47 67 74 49 253 228 253 273 283 285 285 285 270 246
158 164 162 185 179 187 223 222 193 195 190 191 137 102 97 93 94 93 88 79 75 71 69 67 64 66 70 72 62 36 40 57 102 243 262 254 242 261 269 272 276 270 268 264
170 159 164 191 242 224 217 240 258 235 184 162 145 112 111 104 96 93 91 85 80 77 73 69 66 64 67 65 63 34 30 22 332 275 280 281 265 244 253 262 277 275 265 259
191 141 148 173 239 265 200 202 242 258 235 173 126 114 117 115 109 102 96 89 80 75 72 69 63 63 68 60 48 34 33 12 340 312 300 307 325 334 324 306 290 283 275 269
251 142 156 170 228 241 295 289 251 256 250 166 148 152 153 145 130 114 99 84 75 69 67 65 58 53 54 49 39 35 21 1 349 335 332 339 338 334 325 317 310 309 307 297
228 174 166 180 216 211 213 241 292 297 275 278 146 103 123 140 131 119 107 96 83 76 71 70 58 48 46 45 39 30 13 357 2 351 339 338 337 330 321 310 305 299 286 280
273 257 187 182 182 238 272 283 271 283 289 296 109 109 115 121 117 114 108 100 87 77 74 68 59 49 41 33 25 22 14 12 6 352 343 345 346 331 312 309 308 305 304 302
338 278 194 173 177 198 217 251 286 288 284 266 197 128 132 125 120 115 112 106 94 79 74 69 61 52 37 31 21 17 17 12 5 359 350 342 332 328 321 315 311 314 314 313
292 276 277 261 6 189 199 208 259 280 273 269 124 135 152 145 137 127 120 112 103 86 71 62 55 53 35 27 17 16 10 9 8 7 352 339 332 331 321 317 317 316 319 316
258 276 283 276 270 302 269 249 242 257 274 279 132 143 160 156 146 138 130 116 105 88 74 63 49 44 26 26 18 17 3 359 0 4 353 339 331 334 335 334 324 315 309 308
253 277 270 251 221 220 240 241 241 249 249 197 149 130 138 141 137 138 135 124 109 86 63 50 41 34 15 13 11 11 354 348 349 355 350 341 339 338 334 328 327 325 315 308
246 260 279 270 224 217 230 220 218 220 212 201 201 154 141 142 148 149 142 131 116 91 64 40 28 23 3 5 11 4 347 342 348 359 353 345 338 333 328 327 324 314 307 302
278 278 268 264 240 243 119 75 136 181 206 184 134 129 142 144 139 136 130 123 111 95 71 39 18 8 359 8 6 355 349 353 360 2 349 340 334 332 322 315 310 305 308 306
251 272 276 267 262 246 165 160 159 176 204 176 156 138 134 132 138 141 123 117 111 94 71 41 13 2 359 3 356 347 346 354 1 354 339 336 333 326 315 309 303 302 305 304
239 249 255 264 262 260 126 129 140 176 201 172 159 147 146 154 176 160 133 116 101 83 62 38 7 357 358 354 345 337 341 352 352 344 332 328 319 315 303 301 302 302 299 296
200 219 233 252 260 268 111 129 152 195 156 136 145 147 161 176 138 117 123 113 104 93 71 32 7 360 350 340 335 337 345 342 336 329 320 314 311 308 300 301 305 305 303 304
205 211 216 228 241 191 131 149 172 92 100 117 122 130 133 117 105 111 119 120 121 111 78 12 355 345 330 327 333 334 333 330 324 316 309 306 306 308 316 309 304 304 305 304
230 305 337 350 75 97 130 114 85 96 111 112 111 112 127 131 129 128 130 132 135 137 115 346 333 314 310 325 336 320 322 322 313 306 304 301 304 306 312 312 312 310 309 305
190 69 346 336 131 135 139 122 109 106 104 97 103 112 131 138 141 139 142 153 158 160 210 303 306 308 316 323 309 306 316 317 314 308 305 307 312 315 320 314 302 302 303 303
11 37 260 256 194 159 166 154 140 120 121 130 127 133 146 150 158 156 173 182 177 206 250 275 296 302 304 305 299 305 311 314 312 312 311 310 311 309 308 305 295 295 285 282
249 245 245 247 186 184 162 141 150 155 168 168 163 167 165 178 186 183 190 172 218 258 273 285 293 296 300 304 306 305 305 309 313 314 311 307 307 304 302 302 301 293 286 287